DELTA 1 DEB, 21599

Orbit data source: Space-Track

DELTA 1 DEB, 21599 is space debris in SSO originally from a launch on Thu, 12 Jun 1975 UTC launched from the Air Force Western Test Range (AFWTR). Debris objects in space refer to the collection of defunct objects orbiting the Earth. Examples of debris include non-operational satellites, rocket bodies, and fragments generated from explosions, collisions, or faulty payload assembly.

Loading next visibility...
Identifier
21599, 1975-052HT
Orbit
SSO
Country
Flag of USUS
Related business
Manufacturer
Unknown
Mission
Spacecraft
Bus & Motor
Unknown
Mass
Unknown
Launch date (UTC)
1975-06-12 (51 years ago)
Launch vehicle
Unknown
Launch site
Air Force Western Test Range (AFWTR)
Object type
Payload
Rocket body
Debris
Shape & HBR
Unknown shape, 0.1 m
Radar Cross Section
Small (<0.1 m²)

Expand to show TLE details & history
Last TLE update: 3 days ago

TLE from 3 days ago
0 DELTA 1 DEB
1 21599U 75052HT  25351.56805943  .00000031  00000-0  22596-3 0  9992
2 21599  99.8271 270.1308 0425469 190.4394 349.2913 12.72597210596204
Epoch: 2025-12-17T13:38Z
TLE epoch observation values (Epoch: 2025-12-17T13:38:00.334Z)
Latitude
1.1033°
Longitude
159.38349°
Altitude
1,050.409 km
Speed
7.478 km/s
True Right ascension
06h 01m 17s
True Declination
1° 05' 49"
Sunlit
Object was in full shadow at epoch
Visualization orbit readout
Latitude
Unknown
Longitude
Unknown
Altitude
Unknown
Speed
Unknown
Apparent Right ascension
Unknown
Apparent Declination
Unknown
Sunlit
N/A
Visualization observer readout
Local Sidereal Time
10:34:23
Azimuth
Unknown
Elevation
Unknown
Doppler factor
Unknown
Orbital elements
Apogee altitude
1,698.391 km
Perigee altitude
1,039.176 km
Semi-major axis
7,746.92 km
Eccentricity
0.04255
Inclination
99.8271°
RAAN
270.1308°
Arg. of periapsis
190.4394°
True anomaly
348.33556°
Mean anomaly
349.2913°
Eccentric anomaly
348.81858°
Mean motion
3.18309 °/min
Orbital period
113.1 mins
BSTAR
0.00022596
Loading maneuver chart data...
Computing Atmospheric mass density...
Loading historical data...
Loading historical data...
Loading historical data...
Loading historical data...
Loading historical data...
Loading historical data...
Loading historical data...

Documentation

Showing up to 5 results
|